This is the latest recevied weather packets stored in our database for station/object KB1JDX. If no packets are shown the sender has not sent any weather packets the latest 10 day(s).
| Time | Temp. | Humidity | Pressure | Rain* | Wind** | Luminosity | Snow |
|---|---|---|---|---|---|---|---|
| 1777614030 | 8.33° C | 59% | 1008.2 hPa | 0 mm | 0 m/s | - | - |
| 1777612830 | 8.89° C | 59% | 1008.3 hPa | 0 mm | 0 m/s | - | - |
| 1777612766 | 8.89° C | 59% | 1008.3 hPa | 0 mm | 0 m/s | - | - |
| 1777611630 | 8.89° C | 57% | 1008.3 hPa | 0 mm | 0 m/s | - | - |
| 1777610430 | 8.33° C | 52% | 1008.1 hPa | 0 mm | 0 m/s | - | - |
| 1777609165 | 8.89° C | 55% | 1008 hPa | 0 mm | 0 m/s | - | - |
| 1777608030 | 9.44° C | 58% | 1007.6 hPa | 0 mm | 0 m/s | - | - |
| 1777606830 | 10° C | 59% | 1007.3 hPa | 0 mm | 0 m/s | - | - |
| 1777605630 | 10.56° C | 60% | 1007.3 hPa | 0 mm | 0 m/s | - | - |
| 1777605566 | 10.56° C | 60% | 1007.3 hPa | 0 mm | 0 m/s | - | - |
| 1777603230 | 11.11° C | 49% | 1007.2 hPa | 0 mm | 0 m/s | - | - |
| 1777602030 | 11.67° C | 33% | 1007.3 hPa | 0 mm | 0 m/s | - | - |
| 1777601965 | 11.67° C | 32% | 1007.4 hPa | 0 mm | 0 m/s | - | - |
| 1777600830 | 11.67° C | 19% | 1007.4 hPa | 0 mm | 0 m/s | - | - |
| 1777598430 | 11.67° C | 20% | 1007.2 hPa | 0 mm | 0 m/s | - | - |
| 1777598365 | 11.67° C | 20% | 1007.2 hPa | 0 mm | 0 m/s | - | - |
| 1777597230 | 11.67° C | 23% | 1006.8 hPa | 0 mm | 0 m/s | - | - |
| 1777596030 | 12.22° C | 28% | 1006.7 hPa | 0 mm | 0 m/s | - | - |
| 1777594830 | 12.22° C | 32% | 1006.6 hPa | 0 mm | 0 m/s | - | - |
| 1777594765 | 12.22° C | 33% | 1006.6 hPa | 0 mm | 0 m/s | - | - |
| 1777593630 | 12.22° C | 41% | 1006.3 hPa | 0 mm | 0 m/s | - | - |
| 1777592430 | 12.78° C | 47% | 1006.2 hPa | 0 mm | 0 m/s | - | - |
| 1777591230 | 13.33° C | 50% | 1006.2 hPa | 0 mm | 0 m/s | - | - |
| 1777591165 | 13.33° C | 50% | 1006.2 hPa | 0 mm | 0 m/s | - | - |
| 1777590030 | 13.33° C | 51% | 1005.8 hPa | 0 mm | 0 m/s | - | - |
* Rain latest hour (hover to see other rain measurements)
** Current wind speed in m/s (hover to see current wind gust speed)